FLOCK 3P-68 (42003 NORAD) Tracking and Keplerian Element Data

This shows tracking and keplerian element data for the satellite.

Feedback or suggestion? Click here.




ElementValue
Catalog42003
NameFLOCK 3P-68
Epoch Orbit5508
Epoch Day45.61349688
Epoch Year2018
RAAN111.19
Inclination97.4658
Eccentricity0.0009981
Argument of Perigee82.9753
Mean Anonmoly277.2619
Mean Motion15.23914819
Decay Rate1.738E-05
L11 42003U 17008BH 18045.61349688 .00001738 00000-0 74861-4 0 9997
L22 42003 97.4658 111.1900 0009981 82.9753 277.2619 15.23914819 55089

Live tracking and technical data element details for FLOCK 3P-68 (NORAD 42003). FLOCK 3P-68 can be tracked NOW for your location showing map with azimuth and elevation plus other details from your city location.

Track the satellite on the map from your city or location and see movement details for azimuth, elevation, latitude, longitude, range, height, and movement on the map or in text.







IsCatalogInMostPopularTable: catalog: 42003, numindb: 110
Update: records affected: 1



GetName: 42003 FLOCK 3P-68

Hit Count: updated at: Wed, 14 Nov 2018 11:01:22 GMT